Location: Newark
(39.6867°N, 100.6772°W)
Time: 05:39:54
(UTC+00:00)

Vanguard 1 - Pass Details

Date: 14 October 2019
Orbit: 652 x 3831 km, 34.2° (Epoch: 13 November)

Event Time Altitude Azimuth Distance (km) Brightness Sun altitude
Rises 00:49:55 0° 200° (SSW) 4,044 13.6 -9.1°
Reaches altitude 10° 00:52:48 10° 187° (S) 3,424 13.0 -9.7°
Maximum altitude 00:59:59 26° 134° (SE) 3,172 12.3 -11.0°
Enters shadow 01:08:30 15° 92° (E) 4,837 12.9 -12.7°
Drops below altitude 10° 01:11:07 10° 86° (E) 5,482 - -13.2°
Sets 01:17:23 0° 76° (ENE) 7,042 - -14.4°
